Wind_Speed
3 5 7 4 5 4 12 16 13 14 10 8 5 10 5 10 13 4 11 17 13 10 10 10 9 9 9 9 9 9 9 9 9 9 11 11 12 12 12 11 11 9 7 6 8 10 10 8 6
2 2 9 6 2 4 8 17 12 12 11 7 4 5 7 10 5 5 12 18 14 9 8 8 9 9 8 9 9 9 9 9 10 10 11 12 13 13 13 11 10 11 11 9 10 12 10 9 8
4 4 8 0 13 12 19 10 11 14 14 6 9 7 4 11 7 3 9 18 14 9 8 9 9 10 9 9 8 8 9 10 11 12 13 13 14 14 14 14 15 15 15 15 16 15 13 11 10
9 11 4 2 3 18 11 5 11 17 11 8 5 12 15 11 12 9 7 9 9 11 10 10 10 10 9 9 9 9 10 11 12 13 14 16 16 16 15 15 16 17 17 17 17 15 14 12 10
3 5 2 5 17 14 11 10 13 17 10 4 3 20 13 6 9 7 6 7 9 13 12 10 10 10 10 9 9 10 11 12 13 14 15 15 14 14 15 16 17 17 17 17 17 17 16 14 13
3 3 4 9 20 15 8 18 12 12 6 3 1 11 9 9 9 6 2 4 11 9 9 9 9 10 10 10 10 10 12 13 14 15 15 15 15 16 16 17 18 17 17 17 18 18 16 15 13
4 1 5 14 20 15 12 11 8 7 10 2 8 11 6 7 9 5 3 3 10 7 7 8 8 9 11 12 12 14 14 14 14 15 15 15 15 15 15 16 17 16 16 16 16 16 15 14 12
11 7 14 12 16 11 12 13 15 17 9 3 7 11 2 9 11 16 3 2 5 5 7 9 10 11 12 13 15 15 15 15 15 15 15 14 14 14 14 13 13 14 12 12 13 13 12 10 8
3 15 10 11 13 11 14 10 7 6 16 7 7 7 2 9 12 19 11 5 3 4 8 8 10 11 11 12 12 13 14 14 14 14 15 15 16 16 15 16 14 13 11 11 10 9 7 4 4
6 3 9 12 14 10 13 4 12 13 8 8 9 5 2 6 11 17 23 13 9 3 14 13 10 10 10 12 13 13 14 14 15 15 16 16 16 18 14 13 13 13 11 9 6 5 4 9 13
3 9 7 11 10 8 8 9 7 8 14 9 2 3 3 7 9 13 19 8 7 2 2 10 8 12 12 14 15 15 14 14 14 15 17 19 17 17 13 11 11 8 8 7 3 3 5 8 14
8 7 11 11 9 1 8 10 14 11 11 11 7 1 2 7 11 9 15 8 9 14 10 1 1 9 14 17 16 15 14 15 15 14 14 17 17 12 12 8 8 6 3 3 5 9 12 9 8
3 12 6 8 6 8 5 10 9 8 8 7 9 4 6 8 12 6 16 13 7 20 13 7 9 9 9 20 16 16 17 18 18 16 15 14 9 8 7 4 5 1 1 4 8 6 12 9 9
1 6 10 5 7 4 8 9 10 17 6 5 3 3 4 6 11 12 11 15 11 10 14 17 16 10 7 6 13 16 19 20 19 17 17 17 15 12 9 6 4 4 4 4 7 6 7 9 8
5 9 8 8 5 9 7 9 3 4 12 9 7 1 4 9 7 14 9 16 15 13 10 15 15 14 16 9 9 15 16 16 21 19 18 18 17 14 12 10 9 9 9 5 7 8 8 6 9
8 6 6 6 10 7 7 6 9 16 15 16 11 2 9 12 10 14 15 16 19 16 14 11 10 15 18 13 12 17 19 11 17 18 18 18 17 16 16 14 13 13 12 9 10 9 2 7 5
10 8 5 3 12 12 9 8 14 6 20 20 15 11 14 13 13 15 18 16 18 16 15 10 7 11 15 15 16 20 18 16 18 19 18 19 18 17 16 16 17 16 13 13 14 11 9 4 7
2 4 0 9 5 3 11 12 13 1 1 15 17 19 17 15 13 15 16 16 14 14 14 13 12 8 14 15 17 22 22 21 20 21 19 20 19 18 17 17 18 19 17 17 15 17 9 6 9
4 2 11 15 13 4 1 1 5 7 8 11 24 26 20 15 14 16 11 10 11 10 11 11 13 12 12 14 17 20 22 21 23 22 20 20 22 21 20 19 22 20 20 17 15 15 18 15 13
7 1 9 7 1 6 7 10 8 12 11 3 7 18 17 11 9 25 22 17 17 13 9 11 11 13 10 13 14 17 19 21 22 20 21 22 23 22 18 20 25 25 24 21 17 16 20 19 18
4 7 11 14 9 9 5 2 6 2 5 2 4 7 12 16 17 19 25 13 20 21 11 10 13 13 12 13 17 18 21 24 24 21 23 23 22 19 22 25 22 24 29 18 23 21 21 22 19
10 7 9 9 4 5 9 3 12 16 12 6 4 2 8 15 11 22 26 24 23 13 15 17 13 15 14 16 18 20 20 20 22 24 21 20 25 24 24 25 23 26 25 23 23 21 22 25 26
9 9 9 9 18 14 14 8 6 6 14 15 16 15 9 4 9 20 24 28 22 25 20 16 13 18 19 18 16 17 19 19 22 23 26 26 30 33 29 26 22 26 27 24 24 26 29 29 30
15 18 18 5 4 7 18 11 11 12 14 11 9 9 4 5 7 10 14 17 22 27 29 27 23 19 21 22 21 20 20 23 23 26 31 34 33 31 33 29 30 30 27 28 29 29 30 31 30
14 18 7 7 3 9 2 11 9 18 13 3 5 10 11 6 5 12 8 11 26 25 18 30 29 29 32 28 31 27 28 32 23 24 34 36 39 39 38 38 35 33 31 31 31 30 32 32 32
13 15 12 3 4 5 8 11 16 8 10 9 5 5 10 3 6 6 9 9 13 31 36 29 27 33 28 34 35 33 33 32 29 23 25 31 38 35 40 41 38 30 37 28 24 34 38 33 30
9 8 12 12 18 6 14 20 14 16 15 5 1 5 5 9 12 16 20 19 20 20 23 25 19 22 27 32 38 37 33 32 25 20 10 5 18 25 38 35 38 31 34 33 29 28 29 27 22
7 7 11 20 3 5 9 8 22 15 5 9 10 8 8 13 18 22 25 27 31 27 24 25 25 24 28 31 36 39 37 32 17 5 6 18 5 9 10 17 11 13 9 10 15 15 11 8 9
9 7 9 12 11 1 2 7 2 4 5 2 6 14 17 17 19 19 19 25 27 29 31 30 25 29 33 36 38 43 41 27 19 12 9 13 9 4 3 5 6 4 5 7 6 9 4 8 8
14 8 6 9 11 16 10 7 4 9 7 9 11 13 18 19 18 22 22 26 27 27 29 34 36 30 32 31 29 31 29 23 24 20 16 15 13 11 10 9 7 7 5 8 6 10 10 9 10
Wind_Direction
57 351 346 86 151 103 121 118 122 129 133 77 142 170 154 150 172 221 152 131 146 159 155 157 158 154 152 151 143 135 135 143 139 136 127 131 129 131 130 125 121 115 115 138 162 168 170 157 149
119 353 73 78 276 105 68 126 122 119 110 119 96 116 157 156 158 123 148 134 152 156 163 155 164 158 151 145 140 139 144 144 137 132 122 122 124 128 123 114 107 95 80 92 138 148 141 145 140
152 161 134 283 95 120 101 101 126 103 100 110 89 68 114 143 142 124 117 142 153 167 164 163 159 156 148 144 139 142 148 141 134 129 122 121 123 123 115 107 98 92 85 91 109 126 126 122 124
62 93 22 115 207 97 105 93 107 99 85 138 112 95 93 101 115 124 136 129 147 168 167 164 151 151 145 146 145 147 143 137 136 129 121 119 116 114 107 101 94 91 89 92 101 109 109 108 108
47 347 71 86 103 97 88 100 95 95 113 123 56 125 121 112 122 138 118 118 123 161 165 158 148 150 148 151 148 148 144 142 137 134 127 119 115 110 104 95 91 90 90 90 91 92 91 92 91
253 238 21 84 104 99 94 105 107 121 140 134 105 128 117 118 151 150 137 85 110 136 159 147 149 155 154 153 149 147 146 144 143 135 128 118 109 107 103 96 89 86 86 83 84 83 82 84 88
274 223 35 72 84 91 78 90 109 95 135 131 111 73 117 143 143 131 130 65 94 85 154 148 157 164 159 158 156 154 151 148 143 135 129 122 115 109 105 98 91 84 82 83 81 81 78 73 74
153 31 108 65 100 92 108 76 102 124 110 95 16 342 241 155 141 136 100 45 90 101 160 160 170 169 169 166 161 159 157 156 148 144 138 133 119 106 99 97 94 85 83 83 83 80 76 75 69
97 134 116 115 119 145 125 123 123 111 104 132 271 305 117 155 140 136 163 220 234 141 109 172 179 171 170 166 162 164 162 161 156 151 146 145 132 115 108 100 91 87 90 89 87 77 65 51 20
244 213 97 114 103 138 142 48 84 110 146 140 202 263 310 177 150 151 162 211 232 166 129 168 173 175 176 170 166 170 171 168 163 158 158 153 144 127 120 115 99 87 85 85 80 57 331 345 345
315 49 63 85 83 128 123 133 61 43 164 208 2 23 206 180 156 147 169 183 200 223 89 158 163 182 186 183 173 177 178 175 173 171 168 161 165 147 141 131 116 105 85 84 74 41 322 360 11
334 95 89 111 110 109 111 111 72 60 133 200 280 340 186 174 157 148 158 211 160 203 250 221 127 186 183 192 179 183 185 178 183 184 182 176 176 166 157 147 124 129 110 63 35 356 357 11 349
46 355 112 143 118 126 86 95 96 88 132 222 273 227 173 172 164 164 160 213 233 179 215 219 246 239 201 193 184 192 193 187 191 193 189 200 215 186 174 161 141 182 14 5 13 358 318 331 349
214 106 115 129 141 100 145 129 143 109 143 255 325 210 162 157 163 190 178 211 249 220 192 211 222 251 218 216 213 204 204 193 194 199 201 205 208 212 208 225 249 255 289 335 341 335 305 299 320
344 238 159 173 123 109 149 200 194 127 154 241 344 134 184 196 185 203 201 218 247 247 241 223 233 237 240 238 220 228 222 212 197 202 213 216 216 220 231 236 255 269 278 295 279 290 297 297 315
355 200 271 198 202 185 221 282 6 206 187 189 250 219 198 205 213 221 242 228 239 246 248 254 230 225 237 240 217 221 219 236 209 201 217 218 223 221 229 232 245 258 273 275 278 278 185 323 318
91 83 217 178 250 233 235 220 262 20 207 199 205 236 214 203 213 230 246 267 244 248 253 264 253 218 241 228 217 222 218 211 214 212 213 226 231 228 232 240 247 258 264 269 283 268 262 199 288
236 53 76 230 46 216 226 287 231 344 195 215 199 212 224 214 207 231 255 275 251 244 260 265 263 239 234 227 221 220 217 216 216 221 216 228 237 241 241 242 251 255 257 270 288 296 278 262 277
175 286 336 336 276 65 19 282 82 147 160 24 221 208 215 208 234 244 270 327 315 293 262 267 270 265 245 240 229 225 223 220 225 227 228 227 237 241 242 244 249 255 257 270 269 289 275 278 279
88 297 300 12 87 179 164 74 78 160 10 187 112 189 204 221 285 236 251 274 306 326 333 277 266 269 257 250 241 227 226 229 236 238 237 238 242 248 239 243 246 255 257 267 263 269 279 271 285
312 318 335 335 178 218 262 33 100 256 71 63 153 200 207 250 303 210 237 270 299 285 311 316 282 268 264 243 239 231 228 225 232 234 244 248 254 260 263 257 256 260 280 277 263 271 273 276 289
306 346 326 319 242 255 202 154 76 122 116 138 129 146 258 275 257 217 226 289 282 288 286 299 289 311 275 257 243 245 244 250 253 246 242 248 267 261 259 259 266 264 254 266 265 264 268 283 290
311 320 307 306 10 332 204 140 157 127 111 108 139 154 152 33 285 254 268 282 276 277 279 302 273 296 272 259 256 246 248 247 250 252 248 249 246 257 253 264 271 269 265 267 264 265 271 279 283
314 318 319 304 345 219 191 147 176 156 157 186 244 262 294 251 293 289 288 277 246 267 260 261 279 283 271 258 253 235 227 226 226 237 236 238 242 249 253 262 262 268 270 272 274 273 274 276 279
308 346 44 66 230 211 285 193 171 189 214 213 46 13 4 7 356 264 335 291 240 232 252 275 271 272 290 262 244 271 239 251 223 268 268 244 248 249 254 256 259 262 263 266 269 267 271 271 274
329 333 10 282 237 317 64 143 168 163 111 109 37 17 359 342 326 330 299 320 282 248 259 305 304 253 267 258 251 261 267 260 268 313 270 259 244 243 243 247 252 256 257 272 269 275 273 269 270
313 352 328 295 314 100 92 104 129 140 148 170 314 304 288 280 302 304 308 319 296 286 275 293 297 268 262 256 255 264 273 284 297 322 278 325 262 264 257 252 252 276 280 255 272 267 271 268 263
227 12 342 348 9 344 355 121 142 161 207 281 299 286 273 279 288 296 311 320 319 308 304 296 279 266 258 251 259 266 272 281 283 303 247 253 266 251 236 252 258 254 240 277 254 221 240 250 265
197 253 355 335 332 274 8 346 202 268 293 206 260 284 282 285 293 303 303 315 310 303 295 289 278 270 259 257 259 264 271 270 239 246 237 227 233 241 102 173 181 193 289 344 265 205 228 253 257
272 277 330 306 308 318 337 350 325 48 27 296 267 272 283 290 294 301 311 324 311 297 296 282 271 269 264 265 267 267 259 254 223 247 223 224 242 250 242 217 215 259 285 286 259 235 256 254 233
Height
3178 3175 3174 3174 3179 3171 3172 3175 3175 3175 3176 3175 3174 3176 3178 3179 3178 3180 3182 3185 3187 3191 3192 3193 3194 3196 3196 3197 3197 3197 3198 3199 3200 3200 3201 3203 3204 3205 3206 3207 3207 3207 3207 3207 3209 3211 3212 3214 3216
3180 3179 3178 3177 3177 3175 3177 3178 3178 3177 3176 3176 3176 3175 3176 3179 3177 3177 3181 3185 3188 3191 3193 3194 3195 3196 3196 3196 3197 3198 3199 3199 3200 3201 3202 3204 3204 3206 3207 3207 3208 3208 3208 3208 3209 3212 3214 3216 3218
3179 3180 3180 3178 3177 3174 3177 3180 3180 3180 3178 3177 3175 3177 3178 3176 3178 3179 3181 3186 3189 3191 3193 3194 3195 3196 3197 3197 3198 3199 3200 3200 3201 3202 3203 3204 3206 3207 3209 3209 3210 3211 3211 3211 3212 3214 3217 3219 3220
3184 3183 3184 3182 3178 3178 3178 3180 3179 3179 3180 3177 3176 3178 3179 3180 3178 3180 3182 3186 3190 3192 3193 3194 3194 3196 3197 3198 3199 3200 3201 3202 3202 3203 3204 3206 3208 3210 3211 3212 3214 3215 3215 3215 3216 3217 3219 3222 3223
3184 3180 3180 3180 3180 3182 3179 3179 3180 3179 3179 3178 3178 3178 3179 3181 3182 3181 3184 3186 3189 3191 3192 3193 3194 3195 3196 3198 3199 3200 3202 3202 3203 3204 3206 3209 3211 3212 3214 3215 3217 3218 3218 3219 3220 3221 3222 3224 3225
3183 3182 3182 3182 3181 3183 3181 3182 3181 3181 3179 3178 3179 3178 3180 3182 3183 3182 3183 3186 3189 3191 3192 3193 3194 3195 3197 3199 3200 3201 3202 3203 3203 3205 3208 3211 3212 3214 3216 3217 3219 3220 3220 3222 3223 3224 3224 3226 3228
3180 3183 3182 3179 3180 3181 3183 3182 3181 3182 3180 3179 3179 3179 3182 3183 3184 3182 3185 3186 3190 3191 3191 3193 3194 3196 3198 3199 3200 3200 3202 3203 3205 3207 3210 3212 3214 3216 3218 3220 3221 3222 3222 3224 3226 3226 3226 3229 3229
3181 3180 3179 3179 3180 3183 3184 3184 3184 3184 3183 3181 3180 3181 3182 3183 3185 3187 3184 3185 3189 3191 3192 3193 3194 3196 3198 3198 3199 3200 3201 3203 3205 3208 3211 3214 3216 3219 3221 3222 3223 3223 3223 3225 3227 3228 3228 3229 3229
3186 3179 3178 3180 3181 3182 3184 3184 3185 3186 3186 3185 3183 3182 3182 3183 3186 3187 3186 3186 3187 3191 3193 3193 3195 3197 3198 3200 3201 3202 3203 3205 3207 3210 3212 3214 3217 3220 3222 3224 3226 3225 3225 3226 3228 3229 3229 3228 3230
3185 3181 3179 3179 3177 3182 3184 3183 3185 3185 3186 3185 3183 3183 3183 3184 3185 3187 3190 3187 3186 3188 3193 3194 3195 3198 3200 3200 3201 3203 3204 3206 3208 3210 3212 3215 3218 3219 3223 3225 3226 3226 3227 3228 3229 3230 3228 3230 3231
3188 3184 3181 3180 3182 3184 3184 3185 3187 3185 3184 3183 3184 3184 3184 3184 3184 3186 3189 3190 3188 3187 3190 3193 3195 3196 3199 3200 3200 3202 3205 3207 3208 3210 3212 3214 3218 3219 3223 3225 3226 3228 3229 3229 3230 3229 3229 3231 3231
3186 3185 3184 3184 3185 3185 3187 3188 3187 3185 3185 3184 3185 3184 3184 3184 3184 3186 3187 3188 3190 3187 3190 3191 3193 3194 3197 3199 3200 3202 3205 3207 3208 3210 3213 3215 3218 3220 3222 3225 3227 3229 3230 3230 3230 3228 3228 3229 3230
3184 3185 3185 3184 3186 3188 3189 3189 3190 3188 3186 3186 3185 3185 3184 3184 3185 3187 3188 3189 3190 3191 3191 3190 3193 3193 3194 3196 3199 3201 3204 3205 3206 3209 3212 3216 3219 3220 3223 3225 3227 3229 3229 3229 3229 3229 3225 3229 3231
3187 3184 3182 3184 3184 3188 3188 3189 3188 3189 3191 3187 3186 3185 3186 3186 3187 3189 3191 3191 3191 3192 3193 3192 3193 3190 3193 3194 3197 3200 3203 3204 3205 3206 3210 3213 3216 3220 3222 3224 3225 3227 3228 3229 3230 3230 3227 3228 3229
3186 3183 3181 3182 3184 3186 3188 3189 3187 3190 3190 3188 3186 3185 3187 3189 3190 3191 3193 3194 3193 3193 3193 3192 3192 3192 3192 3194 3196 3197 3199 3201 3204 3206 3209 3212 3215 3219 3222 3223 3224 3225 3226 3228 3228 3227 3227 3227 3225
3180 3180 3182 3181 3183 3185 3186 3188 3187 3185 3188 3189 3188 3187 3187 3190 3193 3193 3193 3194 3193 3193 3191 3192 3193 3194 3193 3193 3196 3195 3198 3200 3202 3206 3208 3210 3212 3216 3218 3221 3223 3224 3225 3225 3225 3227 3224 3229 3228
3183 3182 3180 3180 3179 3181 3183 3183 3179 3181 3184 3188 3191 3192 3190 3191 3193 3195 3195 3194 3192 3192 3191 3190 3191 3193 3192 3193 3194 3194 3195 3198 3201 3204 3207 3208 3210 3213 3216 3218 3219 3221 3221 3220 3222 3224 3225 3226 3225
3184 3179 3179 3178 3181 3181 3183 3184 3184 3180 3189 3191 3189 3191 3193 3192 3190 3190 3191 3191 3190 3189 3190 3190 3188 3190 3191 3191 3192 3193 3193 3196 3199 3202 3205 3206 3208 3210 3213 3214 3216 3216 3218 3218 3218 3218 3222 3224 3223
3179 3182 3180 3181 3180 3184 3180 3180 3178 3183 3186 3188 3185 3187 3187 3192 3192 3190 3189 3187 3187 3187 3187 3188 3187 3187 3188 3189 3190 3191 3193 3195 3198 3199 3201 3204 3205 3207 3209 3209 3209 3212 3213 3216 3218 3216 3218 3220 3219
3182 3181 3182 3179 3180 3181 3179 3177 3177 3179 3179 3180 3175 3181 3184 3188 3187 3186 3186 3187 3186 3186 3187 3185 3183 3184 3185 3187 3188 3190 3192 3194 3197 3198 3199 3200 3202 3205 3205 3204 3205 3206 3207 3210 3210 3212 3213 3215 3214
3184 3184 3181 3179 3176 3177 3177 3179 3176 3179 3178 3177 3179 3182 3183 3184 3184 3180 3182 3183 3183 3182 3185 3184 3183 3182 3184 3185 3186 3187 3188 3189 3191 3194 3196 3197 3199 3202 3200 3199 3203 3204 3206 3203 3205 3206 3208 3207 3206
3185 3183 3182 3180 3179 3177 3176 3181 3178 3178 3181 3182 3177 3180 3175 3181 3182 3179 3179 3179 3178 3180 3182 3184 3185 3185 3183 3183 3183 3184 3185 3186 3189 3191 3193 3196 3196 3196 3194 3194 3196 3199 3201 3200 3200 3200 3201 3198 3198
3183 3181 3181 3178 3176 3178 3176 3178 3179 3179 3179 3180 3181 3184 3185 3183 3180 3180 3180 3181 3177 3176 3177 3180 3184 3181 3183 3181 3181 3181 3182 3182 3183 3186 3188 3190 3192 3193 3192 3189 3187 3190 3195 3193 3193 3194 3194 3192 3192
3180 3178 3176 3178 3183 3178 3172 3172 3175 3177 3175 3175 3177 3180 3183 3183 3179 3177 3177 3177 3178 3177 3181 3182 3178 3179 3178 3179 3179 3178 3176 3174 3176 3179 3182 3185 3186 3186 3184 3183 3182 3182 3185 3186 3187 3187 3186 3185 3186
3178 3175 3175 3188 3178 3173 3167 3172 3170 3173 3173 3174 3173 3172 3175 3175 3176 3171 3170 3171 3170 3169 3170 3173 3173 3172 3174 3176 3172 3172 3169 3169 3171 3174 3172 3175 3175 3179 3179 3178 3178 3176 3176 3179 3180 3179 3179 3180 3180
3178 3177 3176 3178 3175 3167 3166 3169 3170 3172 3172 3171 3171 3170 3171 3171 3172 3170 3170 3169 3168 3170 3170 3166 3166 3165 3168 3168 3164 3164 3162 3164 3167 3162 3160 3160 3162 3165 3168 3168 3167 3166 3168 3169 3170 3170 3171 3171 3172
3177 3176 3175 3172 3168 3167 3169 3172 3174 3173 3173 3172 3171 3170 3169 3168 3167 3167 3169 3167 3168 3167 3166 3160 3158 3161 3158 3158 3155 3152 3156 3156 3161 3159 3157 3157 3160 3156 3157 3157 3155 3156 3157 3160 3162 3162 3162 3162 3163
3176 3177 3175 3173 3173 3173 3169 3172 3173 3173 3172 3171 3169 3167 3166 3165 3164 3162 3162 3161 3157 3156 3156 3154 3153 3152 3151 3151 3148 3148 3149 3152 3156 3154 3154 3155 3154 3151 3146 3148 3147 3148 3150 3151 3153 3155 3157 3157 3159
3175 3176 3176 3177 3176 3175 3176 3175 3172 3171 3169 3168 3165 3164 3162 3161 3161 3162 3160 3160 3157 3148 3145 3143 3144 3144 3144 3143 3144 3141 3142 3146 3149 3148 3151 3153 3151 3147 3144 3146 3146 3145 3150 3148 3148 3153 3154 3156 3158
3174 3173 3175 3176 3175 3173 3173 3175 3172 3170 3168 3165 3163 3161 3159 3157 3157 3156 3155 3154 3152 3150 3145 3138 3136 3137 3136 3135 3133 3131 3133 3135 3140 3142 3145 3146 3145 3144 3143 3145 3145 3145 3145 3146 3149 3150 3153 3153 3154